CARTOSAT 2E

导读

CARTOSAT 2E(制图卫星2E)是印度空间研究组织研制的高分辨率光学遥感卫星,于2017年6月23日发射升空。作为Cartosat系列制图卫星的一员,它延续了该系列高分辨率成像能力,空间分辨率优异,既可为地形测绘、国土资源观测提供精准数据,也可承担军事详细侦察任务,支持对区域目标进行高频次重访监视,强化印度空间遥感与区域监测能力。

Basic Information
目录编号:
42767
目录名称:
CARTOSAT 2E
国际标识:
2017-036C
轨道中心:
EARTH
卫星名称:
CARTOSAT 2E
卫星全名:
--
卫星状态:
在轨 (已飞行3308 天)
发射日期:
2017-06-23 UTC
国别 :
印度 (IN)
星等 :
--
Orbit Information
数据来源 国际轨道数据 AOE轨道数据
星历时间 2026-07-14T04:25:29+0800
10小时前
查看轨道信息
2026-07-11T01:00:00+0800
3天前
查看轨道信息
半长轴 6886.258km 6886.293km
偏心率 0.0003099 0.0003146
轨道倾角 97.427° 97.426°
近地点辐角 193.649° 202.992°
升交点赤经 254.212° 251.120°
平近点角 166.466° 259.882°
近地点 505.986km 505.989km
远地点 510.256km 510.323km
周期 94.784分钟 94.785分钟
每日圈数 15.192453 15.192336
Detailed Information
使用方式:
暂无
2D Orbit Map
3D Orbit Map
Orbit Altitude Analysis Chart
Orbit Inclination Analysis Chart
Orbit Comprehensive Analysis Chart
View Comprehensive Chart